Tracking 30995 objects as of 5-Jul-2025
HD Live streaming from Space Station
objects crossing your sky now

STARLINK-2187

Track STARLINK-2187 now!
10-day predictions
STARLINK-2187 is classified as:


NORAD ID: 48562
Int'l Code: 2021-041K
Perigee: 553.6 km
Apogee: 555.1 km
Inclination: 53.1 °
Period: 95.6 minutes
Semi major axis: 6925 km
RCS: Unknown
Launch date: May 15, 2021
Source: United States (US)
Launch site: AIR FORCE EASTERN TEST RANGE (AFETR)
Your satellite tracking list
Your tracking list is empty




NASA's NSSDC Master Catalog

Two Line Element Set (TLE):
1 48562U 21041K   25186.34110186  .00001273  00000-0  10429-3 0  9991
2 48562  53.0543 162.0063 0001099  77.8759 282.2353 15.06403582227928
Source of the keplerian elements: AFSPC